Regional Weather Roundup
Issued by NWS Upton, NY

Current Version | Previous Version | Text Only | Print | Product List | Glossary On
Versions: 1 2 3 4 5 6 7 8 9 10 11 12 13 14 15 16 17 18 19 20 21 22 23 24 25 26 27 28 29 30 31 32 33 34 35 36 37 38 39 40 41 42 43 44 45 46 47 48 49 50
000
ASUS41 KOKX 252105
RWROKX

REGIONAL WEATHER ROUNDUP
NATIONAL WEATHER SERVICE NEW YORK NY
400 PM EST SUN JAN 25 2015

NOTE: "FAIR" INDICATES FEW OR NO CLOUDS BELOW 12,000 FEET WITH NO
SIGNIFICANT WEATHER AND/OR OBSTRUCTIONS TO VISIBILITY.

NYZ071-072-176-178-NJZ106-104-252200-
NEW YORK CITY METRO AREA


CITY           SKY/WX    TMP DP  RH WIND       PRES   REMARKS
CENTRAL PARK   MOCLDY    41  14  33 VRB6      29.83R
LAGUARDIA APRT MOCLDY    40  16  37 N12G20    29.81R WCI  33
KENNEDY INTL   MOCLDY    43  11  27 NW16      29.82R
NEWARK/LIBERTY MOCLDY    41  15  35 NW15      29.81R
BRNX BOT. GARD   N/A    N/A N/A N/A N7        29.80F
TETERBORO      MOCLDY    38  13  35 N8        29.81R WCI  32
$$

NYZ177-179-078>081-252200-
LONG ISLAND NEW YORK

CITY           SKY/WX    TMP DP  RH WIND       PRES   REMARKS
FARMINGDALE    MOCLDY    40  13  33 NW7       29.81R
ISLIP          MOCLDY    38  15  39 NW13G21   29.79R WCI  30
SHIRLEY        PTCLDY    38  14  37 NW15      29.81R WCI  29
WESTHAMPTON    PTCLDY    39  13  34 W16G23    29.81R WCI  30
MONTAUK POINT    N/A     39  19  44 NW14G21   29.79R WCI  31
$$

NYZ052-065-067-252200-
HUDSON VALLEY

CITY           SKY/WX    TMP DP  RH WIND       PRES   REMARKS
WHITE PLAINS   MOCLDY    34  12  40 W16       29.80R WCI  24
NEWBURGH       MOCLDY    32  14  47 W15G23    29.81R WCI  22
MONTGOMERY     PTCLDY    33   7  33 W12       29.81R WCI  24
POUGHKEEPSIE   PTCLDY    35   9  33 W8        29.81R WCI  29
ALBANY         PTCLDY    24   5  44 W14       29.88R WCI  12
$$

NJZ001-105-106-008-010-013-015-019>022-104-252200-
NEW JERSEY

CITY           SKY/WX    TMP DP  RH WIND       PRES   REMARKS
NEWARK/LIBERTY MOCLDY    41  15  35 NW15      29.81R
TETERBORO      MOCLDY    38  13  35 N8        29.81R WCI  32
CALDWELL       MOCLDY    38  11  32 N7        29.81R WCI  33
MORRISTOWN     PTCLDY    39  12  33 NW10      29.81R WCI  32
SOMERVILLE     PTSUNNY   42  22  44 MISG      29.79R
SUSSEX         MOCLDY    34   5  29 NW7       29.82R WCI  28
ANDOVER          N/A     35   9  33 N8        29.80R WCI  29
TRENTON        CLOUDY    41  28  60 NW8       29.81R
MILLVILLE      CLOUDY    47  31  53 W8        29.82R
ATLANTIC CITY  PTSUNNY   47  30  51 W10       29.82R
WRIGHTSTOWN    PTSUNNY   42  31  63 NW9       29.80R
TOMS RIVER     PTSUNNY   45  28  53 W13       29.82S
BELMAR         PTSUNNY   43  27  52 W8        29.81R
$$

PAZ047>061-062-071-252200-
EASTERN PENNSYLVANIA

CITY           SKY/WX    TMP DP  RH WIND       PRES   REMARKS
PHILADELPHIA   CLOUDY    45  31  58 W12       29.83R
ALLENTOWN      CLOUDY    39  24  55 NW5       29.81R
SCRANTON       MOSUNNY   30   8  39 N13       29.81S WCI  20
$$

CTZ002-004>006-009-010-012-RIZ004-006-007-MAZ004-011-015-252200-
SOUTHERN NEW ENGLAND
 IN CT

CITY           SKY/WX    TMP DP  RH WIND       PRES   REMARKS
BRADLEY INTL   MOCLDY    31   4  31 NW12      29.79R WCI  22
HARTFORD       CLEAR     33   9  36 NW7       29.80R WCI  27
DANBURY        PTCLDY    34  11  38 NW7       29.80R WCI  28
WTRBRY/OXFORD  MOCLDY    34  10  37 NW6G16    29.76R WCI  29
BRIDGEPORT     MOCLDY    37  17  44 W10       29.80R WCI  30
MERIDEN        PTCLDY    35  12  38 NW7       29.79R WCI  29
NEW HAVEN      MOCLDY    38  16  40 NW9       29.79R WCI  31
CHESTER        FAIR      34  14  44 NW6       29.78R WCI  29
GROTON         CLEAR     35  12  38 NW12G31   29.78R WCI  27
WILLIMANTIC    CLEAR     32   7  35 NW10G20   29.78R WCI  24

 IN RI

CITY           SKY/WX    TMP DP  RH WIND       PRES   REMARKS
PROVIDENCE     PTCLDY    33  10  38 NW17G25   29.76R WCI  22
BLOCK ISLAND   CLEAR     37  16  41 NW16G23   29.76R WCI  28
WESTERLY       CLEAR     36  12  37 W9G20     29.78R WCI  29

 IN MA

CITY           SKY/WX    TMP DP  RH WIND       PRES   REMARKS
BOSTON         PTCLDY    35   8  32 W15       29.74R WCI  25
WORCESTER      CLEAR     28   4  35 W16       29.71R WCI  16
WESTFIELD      CLEAR     29   1  30 NW14      29.80R WCI  18
PROVINCETOWN   NOT AVBL
NANTUCKET      CLEAR     39  19  44 W13G24    29.72R WCI  31
$$

ANZ330-335-338-340-345-350-353-355-252200-
COASTAL MARINE OBSERVATIONS


STATION/POSITION TIME  SKY/WX   TEMP    WIND        PRES    VSBY  WAVE
                                AIR SEA DIR/SP/G                  HT/PER
                 (UTC)          (F)     (DEG/KT/KT) (MB)    (MI)  (FT/S)
NY HARB ENTRANCE 2100            43 42  290/ 12/ 14 1009.1          3/11
4S FIRE IS       2100               39                N/A           5/12
20S FIRE ISLAND  2000               41              1008.6          6/12
23SW MTP         2100                                 N/A           7/11
HUDSON CANYON    NOT AVBL
EXECUTION ROCKS  2100            41 35  310/ 14/ 23   N/A
WESTERN LI SOUND 2100            38     300/ 16/ 19   N/A           2/ 3
CENTRAL LI SOUND 2000            38 37  300/ 14/ 17   N/A           3/ 5
EASTERN LI SOUND NOT AVBL
ROBBINS REEF     2100            41     330/ 13/ 17 1007.9
$$


>>>>>>>>>>>>>>>>>>>>>>>>>>>> KEY <<<<<<<<<<<<<<<<<<<<<<<<<<<
>                                                          <
>     SKY/WX - SKY CONDITION/PRESENT WEATHER               <
>     TMP    - TEMPERATURE IN FAHRENHEIT                   <
>     DP     - DEWPOINT IN FAHRENHEIT                      <
>     RH     - RELATIVE HUMIDITY IN PERCENT                <
>     WIND   - DIRECTION AND SPEED IN MPH                  <
>     PRES   - MEAN SEA LEVEL PRESSURE IN INCHES OF HG     <
>     WCI    - WIND CHILL INDEX                            <
>     VSB    - VISIBILITY IN MILES                         <
>     HX     - HEAT INDEX                                  <
>     TC     - TEMPERATURE IN CELSIUS                      <
>     VRB    - VARIABLE WIND DIRECTION                     <
>                                                          <
>>>>>>>>>>>>>>>>>>>>>>>>>>>> KEY <<<<<<<<<<<<<<<<<<<<<<<<<<<




USA.gov is the U.S. government's official web portal to all federal, state and local government web resources and services.